[[{"header":{"parameterUnit":"m.s-1","parameterCategory":1,"la1":30.2991,"la2":30.254,"lo1":-89.0895,"lo2":-89.0444,"dy":0.0017,"dx":0.0017,"nx":28,"ny":28,"refTime":"2026-02-10T09:00:00:Z","depth":0,"parameterNumber":2,"parameterNumberName":"U-component_of_WINDS"},"data":[0,0,0,0,0,0,0,0,0,0,0,0,0,0,0,0,0,0,0,0,0,0,0,0,0,0,0,0,0,0,0,0,0,0,0,0,0,0,0,0,0,0,0,0,0,0,0,0,0,0,0,0,0,0,0,0,0,0,-0.8106,-0.8106,0,-0.8048,-0.8048,-0.8047,-0.8029,-0.803,-0.803,-0.803,-0.7971,-0.797,-0.7968,0,0,0,0,0,0,0,0,0,0,0,0,0,-0.8202,-0.8201,-0.8107,-0.8106,-0.8105,-0.8048,-0.8048,-0.8047,-0.8029,-0.803,-0.803,-0.803,-0.7972,-0.797,-0.7968,0,0,0,0,0,0,0,0,0,0,0,0,0,-0.8154,-0.82,-0.8107,-0.8089,-0.8087,-0.8049,-0.8048,-0.8047,-0.8029,-0.803,-0.803,-0.803,-0.7973,-0.797,-0.7967,-0.7942,0,0,-0.7959,-0.7958,0,0,0,0,0,0,0,0,-0.8157,-0.8151,-0.8093,-0.8091,-0.8088,-0.8046,-0.806,-0.8011,-0.8029,-0.8051,-0.803,-0.8031,-0.7996,-0.7991,-0.798,-0.7939,-0.7936,-0.7959,-0.7957,-0.7956,-0.7955,0,0,0,0,0,0,0,-0.816,-0.8153,-0.8083,-0.8092,-0.8089,-0.8085,-0.8078,-0.8051,-0.8022,-0.8049,-0.8048,-0.8041,-0.7995,-0.7982,-0.7978,-0.7936,-0.7959,-0.7956,-0.7955,-0.7954,-0.787,-0.7869,0,0,0,0,0,0,-0.8167,-0.8156,-0.8085,-0.8082,-0.8124,-0.8083,-0.8075,-0.8059,-0.8022,-0.8017,-0.8041,-0.8041,-0.7987,-0.7981,-0.7976,-0.7942,-0.7956,-0.7953,-0.7952,-0.787,-0.787,-0.7869,0,0,0,0,0,0,-0.8169,-0.816,-0.8088,-0.8118,-0.8109,-0.808,-0.8063,-0.8058,-0.8045,-0.8016,-0.8011,-0.8033,-0.7987,-0.798,-0.795,-0.794,-0.7952,-0.795,-0.7871,-0.787,-0.7869,-0.7875,0,0,0,0,0,0,-0.8171,-0.8161,-0.8151,-0.8118,-0.8107,-0.8063,-0.8062,-0.8057,-0.8041,-0.804,-0.8007,-0.8002,-0.7987,-0.7954,-0.7947,-0.7936,-0.7947,-0.7872,-0.787,-0.7869,-0.7876,-0.7875,-0.7874,0,0,0,0,0,-0.8175,-0.8156,-0.8151,-0.8142,-0.8094,-0.8062,-0.8056,-0.8038,-0.804,-0.8029,-0.801,-0.8003,-0.7943,-0.7951,-0.7943,-0.7932,-0.7872,-0.7871,-0.787,-0.7876,-0.7875,-0.7874,0,0,0,0,0,0,-0.8189,-0.8151,-0.8145,-0.8115,-0.8092,-0.8059,-0.8045,-0.8037,-0.8013,-0.8013,-0.7993,-0.7985,-0.7957,-0.7941,-0.7952,-0.7904,-0.7907,-0.7904,-0.7915,-0.7913,-0.7912,-0.7916,-0.7945,0,0,0,0,0,-0.8188,-0.8165,-0.8134,-0.811,-0.8099,-0.8074,-0.8059,-0.8048,-0.8023,-0.8013,-0.7992,-0.7968,-0.7944,-0.7928,-0.7904,-0.7874,-0.7866,-0.7862,-0.7861,-0.786,-0.7858,-0.7839,-0.7837,-0.7865,-0.7865,-0.7865,0,0,-0.8187,-0.8164,-0.815,-0.8112,-0.8093,-0.8069,-0.8066,-0.8041,-0.8023,-0.801,-0.7979,-0.7963,-0.7936,-0.7905,-0.7891,-0.7891,-0.7848,-0.7859,-0.7858,-0.7856,-0.7838,-0.7835,-0.7833,-0.7864,-0.7864,-0.7864,0,0,-0.8172,-0.8153,-0.813,-0.811,-0.8081,-0.8065,-0.8059,-0.8028,-0.8016,-0.7985,-0.7974,-0.7953,-0.7911,-0.7891,-0.7876,-0.7853,-0.7845,-0.7846,-0.784,-0.7823,-0.782,-0.7818,-0.7809,-0.7806,-0.7844,-0.7844,-0.7844,0,-0.8174,-0.8138,-0.8119,-0.8095,-0.8078,-0.8064,-0.804,-0.8022,-0.7987,-0.7975,-0.7977,-0.7923,-0.7904,-0.7868,-0.7862,-0.7851,-0.7843,-0.7849,-0.7822,-0.782,-0.7818,-0.7808,-0.7805,-0.7844,-0.7844,-0.7844,-0.7844,0,-0.8141,-0.8116,-0.8102,-0.8066,-0.8048,-0.8024,-0.8002,-0.7986,-0.7975,-0.7959,-0.7928,-0.7904,-0.7874,-0.7865,-0.7855,-0.7827,-0.7828,-0.7826,-0.7829,-0.7815,-0.7806,-0.7803,-0.7844,-0.7844,-0.7844,-0.7844,0,0,-0.8133,-0.8088,-0.8082,-0.8066,-0.8032,-0.8012,-0.7988,-0.7958,-0.7944,-0.792,-0.7898,-0.7863,-0.786,-0.7843,-0.7831,-0.7816,-0.7797,-0.7815,-0.7814,-0.7811,-0.7763,-0.7764,-0.776,-0.7792,-0.7792,-0.7791,-0.7765,0,-0.8113,-0.8068,-0.805,-0.8013,-0.7989,-0.7975,-0.7954,-0.793,-0.7914,-0.7892,-0.7874,-0.7849,-0.7848,-0.7837,-0.7822,-0.7803,-0.7787,-0.7804,-0.7771,-0.777,-0.7777,-0.7755,-0.7756,-0.7733,-0.7761,-0.7761,-0.776,0,-0.8083,-0.8058,-0.8018,-0.7986,-0.7975,-0.7956,-0.7927,-0.7906,-0.7879,-0.7868,-0.7848,-0.7837,-0.781,-0.7815,-0.7778,-0.779,-0.7776,-0.7764,-0.7763,-0.7758,-0.7763,-0.7748,-0.7725,-0.7721,-0.7755,-0.7755,-0.7756,0,-0.8079,-0.8036,-0.8006,-0.7992,-0.7954,-0.7941,-0.7925,-0.7898,-0.7881,-0.7856,-0.7844,-0.7817,-0.7801,-0.778,-0.7761,-0.7767,-0.7725,-0.7729,-0.7715,-0.7715,-0.7705,-0.7706,-0.7678,-0.7699,-0.7699,-0.7699,-0.7699,0,-0.8058,-0.8034,-0.8003,-0.7985,-0.7957,-0.7937,-0.7911,-0.7893,-0.787,-0.7848,-0.7835,-0.7814,-0.7791,-0.7768,-0.7753,-0.7724,-0.7717,-0.7708,-0.7704,-0.7708,-0.7709,-0.7697,-0.7697,-0.7698,-0.7698,-0.7698,-0.7698,0,-0.8049,-0.8027,-0.7994,-0.796,-0.7951,-0.7932,-0.7904,-0.7885,-0.7868,-0.784,-0.7833,-0.7806,-0.7778,-0.7757,-0.7721,-0.7711,-0.7679,-0.7676,-0.7687,-0.7685,-0.7671,-0.7672,-0.7633,-0.7626,-0.7654,-0.7654,-0.7653,0,-0.8036,-0.8016,-0.7981,-0.7964,-0.7948,-0.7922,-0.7904,-0.7884,-0.7866,-0.7833,-0.7818,-0.7789,-0.7764,-0.7719,-0.7697,-0.7669,-0.7664,-0.7652,-0.766,-0.7664,-0.7662,-0.7662,-0.766,-0.7651,-0.7651,-0.765,-0.765,0,-0.8014,-0.8004,-0.7979,-0.7949,-0.7927,-0.7903,-0.7879,-0.7867,-0.7842,-0.7822,-0.7792,-0.7773,-0.7735,-0.7706,-0.7675,-0.7659,-0.765,-0.7648,-0.7643,-0.7646,-0.7653,-0.7647,-0.7683,-0.7649,-0.7649,-0.7649,-0.7649,-0.7649,-0.8001,-0.7983,-0.7954,-0.7926,-0.7905,-0.7883,-0.7863,-0.7843,-0.7818,-0.7785,-0.7775,-0.7743,-0.7716,-0.7674,-0.7657,-0.7633,-0.7633,-0.7626,-0.7624,-0.7622,-0.7621,-0.7658,-0.7627,-0.7627,-0.7627,-0.7627,-0.7627,0,-0.7978,-0.7958,-0.7932,-0.7898,-0.7875,-0.7869,-0.7842,-0.7823,-0.7796,-0.7771,-0.7746,-0.7711,-0.7683,-0.7658,-0.7628,-0.7613,-0.7608,-0.7605,-0.7605,-0.7601,-0.7624,-0.763,-0.761,-0.761,-0.761,-0.761,-0.761,-0.761,-0.7963,-0.7931,-0.7917,-0.7875,-0.7856,-0.7824,-0.7809,-0.7788,-0.7768,-0.7729,-0.7705,-0.7689,-0.7664,-0.7631,-0.7604,-0.7598,-0.7587,-0.7585,-0.7577,-0.7598,-0.76,-0.7602,-0.7608,-0.7583,-0.7583,-0.7557,-0.7557,-0.7556]},{"header":{"parameterUnit":"m.s-1","parameterCategory":1,"la1":30.2991,"la2":30.254,"lo1":-89.0895,"lo2":-89.0444,"dy":0.0017,"dx":0.0017,"nx":28,"ny":28,"refTime":"2026-02-10T09:00:00:Z","depth":0,"parameterNumber":3,"parameterNumberName":"V-component_of_WINDS"},"data":[0,0,0,0,0,0,0,0,0,0,0,0,0,0,0,0,0,0,0,0,0,0,0,0,0,0,0,0,0,0,0,0,0,0,0,0,0,0,0,0,0,0,0,0,0,0,0,0,0,0,0,0,0,0,0,0,0,0,2.0003,2.0004,0,2.0098,2.0099,2.01,2.0122,2.0121,2.012,2.012,2.0216,2.0219,2.0223,0,0,0,0,0,0,0,0,0,0,0,0,0,1.9843,1.9846,2.0003,2.0004,2.0005,2.0097,2.0099,2.01,2.0122,2.0121,2.012,2.0119,2.0215,2.0219,2.0223,0,0,0,0,0,0,0,0,0,0,0,0,0,1.9922,1.9847,2.0003,2.0027,2.003,2.0097,2.0099,2.01,2.0122,2.0121,2.012,2.0119,2.0214,2.0219,2.0223,2.0272,0,0,2.0238,2.024,0,0,0,0,0,0,0,0,1.9918,1.9928,2.0023,2.0026,2.0029,2.0097,2.0078,2.0158,2.0122,2.0087,2.012,2.0119,2.0177,2.0185,2.0205,2.0277,2.0281,2.0238,2.0241,2.0243,2.0245,0,0,0,0,0,0,0,1.9912,1.9924,2.004,2.0024,2.0028,2.0034,2.0044,2.0093,2.0137,2.009,2.0092,2.0103,2.0179,2.02,2.0207,2.0282,2.0238,2.0242,2.0245,2.0247,2.0402,2.0403,0,0,0,0,0,0,1.9902,1.992,2.0037,2.0043,1.997,2.0038,2.0049,2.0076,2.0136,2.0144,2.0104,2.0104,2.0193,2.0202,2.0211,2.0274,2.0243,2.0248,2.025,2.04,2.0402,2.0403,0,0,0,0,0,0,1.9899,1.9913,2.0034,1.9982,1.9998,2.0042,2.0072,2.0079,2.01,2.0146,2.0154,2.0117,2.0192,2.0204,2.0257,2.0277,2.025,2.0254,2.0399,2.0401,2.0403,2.0399,0,0,0,0,0,0,1.9894,1.9911,1.993,1.9982,2.0,2.0078,2.0073,2.0081,2.0108,2.0109,2.0161,2.0169,2.0192,2.025,2.0262,2.0283,2.0258,2.0397,2.04,2.0402,2.0397,2.04,2.0403,0,0,0,0,0,1.9888,1.9924,1.9931,1.9945,2.0025,2.0079,2.009,2.0116,2.0109,2.0129,2.0159,2.0167,2.0273,2.0255,2.0269,2.0292,2.0396,2.0399,2.0402,2.0396,2.04,2.0403,0,0,0,0,0,0,1.9872,1.9932,1.9939,1.9993,2.0031,2.0083,2.0108,2.0119,2.0159,2.0158,2.0189,2.0201,2.0253,2.0278,2.0257,2.0344,2.0335,2.034,2.0326,2.0329,2.0332,2.0325,2.0262,0,0,0,0,0,1.9875,1.9915,1.9964,2.0007,2.0026,2.0064,2.0088,2.0106,2.0146,2.0162,2.0196,2.0235,2.0278,2.0305,2.0346,2.0401,2.0414,2.0424,2.0426,2.0429,2.0433,2.0466,2.0472,2.0413,2.0412,2.0412,0,0,1.9881,1.9919,1.9941,2.0005,2.0036,2.0077,2.0077,2.0119,2.015,2.0169,2.0222,2.0248,2.0294,2.0349,2.0375,2.0371,2.0453,2.0432,2.0433,2.0437,2.047,2.0475,2.048,2.0414,2.0414,2.0414,0,0,1.9914,1.9945,1.9985,2.0017,2.0065,2.0091,2.01,2.0151,2.017,2.0223,2.0239,2.0276,2.0347,2.038,2.0406,2.0453,2.0463,2.0466,2.048,2.0512,2.0517,2.0521,2.054,2.0546,2.047,2.047,2.047,0,1.9915,1.9977,2.0004,2.0047,2.0075,2.0095,2.0136,2.0166,2.0225,2.0244,2.024,2.0332,2.0364,2.0428,2.0439,2.0459,2.0472,2.046,2.0514,2.0519,2.0523,2.0541,2.0548,2.047,2.047,2.047,2.047,0,1.9977,2.002,2.0047,2.0104,2.0135,2.0177,2.0212,2.024,2.0255,2.0281,2.0337,2.0376,2.0427,2.0444,2.0458,2.051,2.0507,2.0508,2.0499,2.0528,2.0546,2.0553,2.0471,2.0471,2.0471,2.0471,0,0,2.0001,2.0075,2.0084,2.0112,2.0167,2.0201,2.0244,2.0294,2.0319,2.0359,2.0397,2.0459,2.0461,2.049,2.0509,2.0536,2.0574,2.0534,2.0536,2.0541,2.0636,2.0635,2.0643,2.058,2.0582,2.0583,2.0632,0,2.0041,2.0119,2.0147,2.0212,2.0253,2.0272,2.0311,2.0349,2.0375,2.0414,2.0443,2.0486,2.0485,2.0503,2.0531,2.0563,2.0593,2.056,2.0617,2.0619,2.0606,2.0651,2.0651,2.0696,2.0639,2.064,2.0641,0,2.0098,2.014,2.021,2.0262,2.028,2.0314,2.0363,2.04,2.0445,2.0462,2.0496,2.0513,2.056,2.0549,2.0615,2.0592,2.0617,2.0636,2.0639,2.0646,2.0632,2.0661,2.071,2.0717,2.0652,2.0651,2.065,0,2.0111,2.0185,2.0236,2.0259,2.0321,2.0344,2.0371,2.0415,2.0444,2.0487,2.0507,2.0555,2.0581,2.0618,2.0648,2.0637,2.0713,2.0703,2.0729,2.0728,2.0744,2.0743,2.08,2.0759,2.0759,2.0759,2.0759,0,2.0153,2.0195,2.0243,2.0275,2.0323,2.0354,2.0401,2.043,2.0469,2.0507,2.0527,2.0563,2.06,2.0641,2.0664,2.0717,2.0728,2.0744,2.075,2.0743,2.0741,2.076,2.0758,2.0761,2.076,2.076,2.0759,0,2.0175,2.0209,2.0267,2.0321,2.0336,2.0369,2.0416,2.0448,2.0476,2.0524,2.0537,2.058,2.063,2.0663,2.0726,2.0742,2.08,2.0804,2.0785,2.0788,2.0812,2.081,2.0884,2.0896,2.0846,2.0846,2.0847,0,2.02,2.0233,2.0292,2.0319,2.0346,2.039,2.042,2.0452,2.0483,2.0538,2.0564,2.0615,2.0657,2.0735,2.0772,2.0821,2.0828,2.0851,2.0835,2.0828,2.083,2.0828,2.0832,2.0853,2.0853,2.0854,2.0854,0,2.0242,2.0258,2.03,2.035,2.0386,2.0426,2.0466,2.0488,2.0528,2.0562,2.0613,2.0646,2.0711,2.0761,2.0814,2.0842,2.0856,2.0859,2.0868,2.0861,2.0849,2.0857,2.0792,2.0857,2.0857,2.0856,2.0856,2.0856,2.0267,2.0299,2.0345,2.0393,2.0427,2.0465,2.0498,2.0531,2.0574,2.063,2.0646,2.07,2.0746,2.0818,2.0847,2.089,2.0888,2.09,2.0904,2.0907,2.0907,2.0841,2.09,2.09,2.09,2.0899,2.0899,0,2.0312,2.0343,2.0386,2.0443,2.0481,2.049,2.0536,2.0568,2.0614,2.0656,2.0698,2.0758,2.0807,2.0849,2.0901,2.0927,2.0935,2.094,2.0939,2.0945,2.0905,2.0893,2.0933,2.0933,2.0933,2.0933,2.0933,2.0933,2.0339,2.0393,2.0414,2.0486,2.0517,2.057,2.0595,2.0631,2.0665,2.073,2.0772,2.0799,2.0841,2.0897,2.0943,2.0954,2.0973,2.0977,2.0989,2.0952,2.0948,2.0944,2.0933,2.098,2.0981,2.1026,2.1026,2.1027]}]]